Location: Angwan Shehu
(11.2514°N, 7.4613°E)
Time: 05:41:08
(UTC+00:00)

Cosmos 2227 Rocket - Pass Details

Date: 14 November 2019
Orbit: 838 x 846 km, 71.0° (Epoch: 13 December)

Event Time Altitude Azimuth Distance (km) Brightness Sun altitude
Rises 19:02:38 0° 332° (NNW) 3,389 5.5 -29.0°
Reaches altitude 10° 19:05:11 10° 325° (NW) 2,454 4.8 -29.6°
Maximum altitude 19:10:26 41° 256° (WSW) 1,194 3.3 -30.8°
Drops below altitude 10° 19:15:42 10° 187° (S) 2,449 4.8 -32.1°
Sets 19:18:15 0° 180° (S) 3,382 5.5 -32.7°
